GW0143 Weather Reports


time (UTC)temp
F
wind
direction
speed
knots
gust
knots
rain 1hr
in
rain 24hr
in
rain mn
in
humidity
%
barometer
mb
20260503202523 60 0 5.2 8.7 0.00 0.00 0.00 19 1018.3
20260503201523 59 342 3.5 7.8 0.00 0.00 0.00 20 1018.5
20260503200517 59 9 6.1 9.6 0.00 0.00 0.00 21 1018.6
20260503195517 59 314 5.2 11.3 0.00 0.00 0.00 20 1018.8
20260503194517 60 320 4.3 7.8 0.00 0.00 0.00 18 1018.8
20260503193518 59 355 4.3 7.8 0.00 0.00 0.00 19 1018.9
20260503192524 59 316 4.3 8.7 0.00 0.00 0.00 18 1019.1
20260503191539 59 298 3.5 7.8 0.00 0.00 0.00 18 1019.2
20260503190518 58 205 5.2 7.8 0.00 0.00 0.00 20 1019.4
20260503185518 58 272 7.8 13.9 0.00 0.00 0.00 20 1019.5
20260503184518 57 289 6.1 12.2 0.00 0.00 0.00 21 1019.8
20260503183520 57 297 4.3 7.8 0.00 0.00 0.00 22 1020.0
20260503182519 57 278 5.2 11.3 0.00 0.00 0.00 23 1020.1
20260503181539 56 41 2.6 6.1 0.00 0.00 0.00 23 1020.4
20260503180519 56 32 4.3 7.8 0.00 0.00 0.00 23 1020.5
20260503175519 56 341 3.5 7.0 0.00 0.00 0.00 24 1020.6
20260503174528 55 327 1.7 4.3 0.00 0.00 0.00 24 1020.7
20260503173520 55 298 3.5 7.0 0.00 0.00 0.00 24 1020.8
20260503172528 54 335 1.7 3.5 0.00 0.00 0.00 24 1021.0
20260503171529 54 10 1.7 3.5 0.00 0.00 0.00 25 1021.0
20260503170520 54 52 2.6 6.1 0.00 0.00 0.00 25 1021.0
20260503150522 51 148 3.5 6.1 0.00 0.00 0.00 34 1022.0
20260503130517 40 86 3.5 5.2 0.00 0.00 0.00 48 1021.9
20260503110519 37 138 5.2 7.8 0.00 0.00 0.00 50 1021.5
20260503081518 38 149 7.0 8.7 0.00 0.00 0.00 49 1021.7
20260503080518 38 147 6.1 7.8 0.00 0.00 0.00 49 1021.7
20260503072519 38 147 5.2 7.0 0.00 0.00 0.00 49 1022.0
20260503071519 38 149 5.2 7.0 0.00 0.00 0.00 53 1022.1
20260503070539 38 161 5.2 7.0 0.00 0.00 0.00 50 1022.1
20260503054521 38 157 7.0 8.7 0.00 0.00 0.00 58 1022.1
20260503053521 38 153 6.1 7.8 0.00 0.00 0.00 60 1022.1
20260503052521 38 156 6.1 7.8 0.00 0.00 0.00 59 1022.2
20260503051521 38 157 6.1 7.0 0.00 0.00 0.00 58 1022.1
20260503050521 39 158 5.2 6.1 0.00 0.00 0.00 57 1022.2
20260503045522 39 164 5.2 7.0 0.00 0.00 0.00 56 1022.2
20260503044522 38 164 5.2 7.8 0.00 0.00 0.00 57 1022.3
20260503043522 39 183 5.2 7.8 0.00 0.00 0.00 56 1022.3
20260503042522 40 167 6.1 7.8 0.00 0.00 0.00 54 1022.3
20260503041539 40 186 6.1 9.6 0.00 0.00 0.00 52 1022.3
20260503040522 39 191 6.1 7.8 0.00 0.00 0.00 54 1022.4
20260503035517 40 185 3.5 5.2 0.00 0.00 0.00 56 1022.4
20260503034517 41 152 5.2 7.0 0.00 0.00 0.00 51 1022.2
20260503033517 40 169 6.1 7.8 0.00 0.00 0.00 50 1022.4
20260503032604 40 153 6.1 7.0 0.00 0.00 0.00 50 1022.3
20260503031521 39 156 6.1 8.7 0.00 0.00 0.00 52 1022.4
20260503030517 40 156 5.2 7.0 0.00 0.00 0.00 49 1022.2
20260503025518 40 155 6.1 7.8 0.00 0.00 0.00 49 1022.1
20260503024518 40 157 5.2 6.1 0.00 0.00 0.00 49 1022.0
20260503023518 40 160 4.3 6.1 0.00 0.00 0.00 52 1021.9
20260503022519 41 161 4.3 5.2 0.00 0.00 0.00 52 1021.8
20260503021519 43 173 4.3 5.2 0.00 0.00 0.00 47 1021.7
20260503020519 44 167 4.3 5.2 0.00 0.00 0.00 46 1021.6
20260503015519 47 172 3.5 5.2 0.00 0.00 0.00 42 1021.4
20260503014530 50 189 3.5 3.5 0.00 0.00 0.00 37 1021.4
20260503013530 53 191 1.7 2.6 0.00 0.00 0.00 30 1021.3
20260503012530 54 169 2.6 2.6 0.00 0.00 0.00 25 1021.3
20260503011530 55 206 3.5 4.3 0.00 0.00 0.00 25 1021.2
20260503010517 56 251 2.6 3.5 0.00 0.00 0.00 23 1021.2
20260503005517 56 6 1.7 2.6 0.00 0.00 0.00 20 1021.2
20260503004520 56 190 2.6 4.3 0.00 0.00 0.00 23 1021.3
20260503003520 56 242 4.3 8.7 0.00 0.00 0.00 23 1021.3
20260503002521 56 225 3.5 6.1 0.00 0.00 0.00 23 1021.3
20260503001518 57 157 2.6 4.3 0.00 0.00 0.00 22 1021.3
20260503000518 57 48 1.7 3.5 0.00 0.00 0.00 21 1021.4
20260502235541 57 12 3.5 5.2 0.00 0.00 0.00 21 1021.5
20260502234521 57 359 2.6 5.2 0.00 0.00 0.00 20 1021.6
20260502233519 56 108 1.7 3.5 0.00 0.00 0.00 20 1021.6
20260502232522 55 175 4.3 7.0 0.00 0.00 0.00 23 1021.6
20260502231522 56 175 4.3 7.0 0.00 0.00 0.00 24 1021.6
20260502230522 56 230 4.3 7.8 0.00 0.00 0.00 24 1021.7
20260502225522 55 154 5.2 7.8 0.00 0.00 0.00 20 1021.8
20260502224523 55 182 4.3 7.8 0.00 0.00 0.00 21 1021.7
20260502223523 56 167 5.2 8.7 0.00 0.00 0.00 19 1021.7
20260502222520 56 129 1.7 4.3 0.00 0.00 0.00 20 1021.9
20260502221517 56 137 4.3 7.8 0.00 0.00 0.00 20 1022.0
20260502220517 56 124 2.6 7.0 0.00 0.00 0.00 19 1022.1
20260502215518 55 170 2.6 6.1 0.00 0.00 0.00 21 1022.3
20260502214518 55 137 2.6 6.1 0.00 0.00 0.00 21 1022.5
20260502213524 55 149 3.5 7.8 0.00 0.00 0.00 19 1022.7
20260502212518 55 160 3.5 6.1 0.00 0.00 0.00 22 1022.8
20260502211518 55 226 4.3 7.8 0.00 0.00 0.00 24 1023.0
20260502210519 55 236 4.3 8.7 0.00 0.00 0.00 25 1023.1
20260502205522 54 119 1.7 3.5 0.00 0.00 0.00 22 1023.3
20260502204539 53 18 3.5 7.8 0.00 0.00 0.00 22 1023.4
20260502203519 54 29 4.3 8.7 0.00 0.00 0.00 24 1023.4